Bookmark and Share
Track history (hours):
 

Wan Hai 501

Last reported at 2014-Apr-15 21:28 UTC. Time now 2014-Apr-19 14:42 UTC.
Position N 01°15' E 104°06'.

Length 269 m; draft 10.1 m.

Type: Cargo ship. MMSI: 563382000.

NotesDate/timePositionNaut miles runAvg speedWind from/ knotsBaromVisibWave heightAir tempDewpointWater temp
2014-Apr-15 21:28N 01°15' E 104°06'1314.8
2014-Apr-15 20:34N 01°12' E 103°53'9 9.2
2014-Apr-15 19:33N 01°17' E 103°45'1 1.2
2014-Apr-15 18:33N 01°17' E 103°46'0 0.0
2014-Apr-15 17:31N 01°17' E 103°46'0 0.0
2014-Apr-15 16:31N 01°17' E 103°46'0 0.0
2014-Apr-15 15:28N 01°17' E 103°46'0 0.0
2014-Apr-15 14:31N 01°17' E 103°46'0 0.0
2014-Apr-15 11:31N 01°17' E 103°46'0 0.0
2014-Apr-15 10:31N 01°17' E 103°46'0 0.0
2014-Apr-15 09:31N 01°17' E 103°46'0 0.0
2014-Apr-15 08:31N 01°17' E 103°46'0 0.0
2014-Apr-15 07:31N 01°17' E 103°46'0 0.0
2014-Apr-15 06:31N 01°17' E 103°46'0 0.0
2014-Apr-15 05:31N 01°17' E 103°46'0 0.0
2014-Apr-15 03:31N 01°17' E 103°46'0 0.0
2014-Apr-15 02:31N 01°17' E 103°46'0 0.0
2014-Apr-15 01:31N 01°17' E 103°46'0 0.0
2014-Apr-15 00:31N 01°17' E 103°46'0 0.0
2014-Apr-14 23:31N 01°17' E 103°46'1 1.5
2014-Apr-14 22:34N 01°16' E 103°46'5 5.1
2014-Apr-14 21:34N 01°13' E 103°41'9 8.5
2014-Apr-14 20:34N 01°11' E 103°33'3 3.3
2014-Apr-14 19:34N 01°10' E 103°30'3 2.6
2014-Apr-14 18:33N 01°10' E 103°27'4 4.0
2014-Apr-14 17:33N 01°12' E 103°24'4 4.1
2014-Apr-14 16:32N 01°15' E 103°21'2010.3
2014-Apr-14 14:33N 01°27' E 103°05'  

Dump ship's entire track history

sailing weather and tide predictions

Wan Hai 501 — S6AS7 — position and weather